This is the latest recevied weather packets stored in our database for station/object WA9NNN-10. If no packets are shown the sender has not sent any weather packets the latest 10 day(s).
| Time | Temp. | Humidity | Pressure | Rain* | Wind** | Luminosity | Snow |
|---|---|---|---|---|---|---|---|
| 1788026911 | 27.22° C | 60% | 1019.7 hPa | 0 mm | - | - | - |
| 1788026010 | 27.22° C | 59% | 1019.9 hPa | 0 mm | - | - | - |
| 1788025712 | 27.22° C | 59% | 1020 hPa | 0 mm | - | - | - |
| 1788025112 | 27.78° C | 58% | 1020.1 hPa | 0 mm | - | - | - |
| 1788024810 | 27.78° C | 58% | 1020.2 hPa | 0 mm | - | - | - |
| 1788023913 | 28.33° C | 57% | 1020.6 hPa | 0 mm | - | - | - |
| 1788023010 | 28.33° C | 57% | 1020.6 hPa | 0 mm | - | - | - |
| 1788022713 | 28.89° C | 56% | 1020.6 hPa | 0 mm | - | - | - |
| 1788022421 | 28.89° C | 57% | 1020.7 hPa | 0 mm | - | - | - |
| 1788022112 | 28.33° C | 57% | 1020.7 hPa | 0 mm | - | - | - |
| 1788021813 | 28.33° C | 56% | 1020.8 hPa | 0 mm | - | - | - |
| 1788021511 | 28.33° C | 58% | 1020.8 hPa | 0 mm | - | - | - |
| 1788021210 | 28.33° C | 58% | 1021 hPa | 0 mm | - | - | - |
| 1788020612 | 27.78° C | 60% | 1021.1 hPa | 0 mm | - | - | - |
| 1788020313 | 27.22° C | 60% | 1021.2 hPa | 0 mm | - | - | - |
| 1788019711 | 26.11° C | 63% | 1021.2 hPa | 0 mm | - | - | - |
| 1788017913 | 25.56° C | 65% | 1021.5 hPa | 0 mm | - | - | - |
| 1788017613 | 25° C | 65% | 1021.5 hPa | 0 mm | - | - | - |
| 1788017011 | 25° C | 66% | 1021.6 hPa | 0 mm | - | - | - |
| 1788016714 | 25° C | 66% | 1021.6 hPa | 0 mm | - | - | - |
| 1788016111 | 24.44° C | 67% | 1021.6 hPa | 0 mm | - | - | - |
| 1788015810 | 24.44° C | 68% | 1021.6 hPa | 0 mm | - | - | - |
| 1788015511 | 24.44° C | 68% | 1021.6 hPa | 0 mm | - | - | - |
| 1788014611 | 23.89° C | 69% | 1021.4 hPa | 0 mm | - | - | - |
| 1788014311 | 23.89° C | 68% | 1021.3 hPa | 0 mm | - | - | - |
* Rain latest hour (hover to see other rain measurements)
** Current wind speed in m/s (hover to see current wind gust speed)